Weather History for Salida, CO

Change the Weather History Date:

Sunday, March 23, 2014

  Actual Average (KGUC) Record (KGUC)
Temperature  
Mean Temperature 36 °F -  
Max Temperature 51 °F 46 °F 66 °F (2012)
Min Temperature 21 °F 19 °F 0 °F (2008)
Degree Days  
Heating Degree Days 29    
Moisture  
Dew Point 9 °F    
Average Humidity 40    
Maximum Humidity 83    
Minimum Humidity 8    
Precipitation  
Precipitation 0.00 in - - ()
Sea Level Pressure  
Sea Level Pressure 30.23 in    
Wind  
Wind Speed 8 mph (West)    
Max Wind Speed 30 mph    
Max Gust Speed 41 mph    
Visibility 10 miles    
Events      
Averages and records for this station are not official NWS values.
T = Trace of Precipitation, MM = Missing Value Source: NWS Daily Summary

Daily Weather History Graph

Daily Weather History Graph

Search for Another Location

Airport:

Trip Planner

Search our weather history database for the weather conditions in past years. The results will help you decide how hot, cold, wet, or windy it might be!

Date:

Astronomy

Mar. 23, 2014 Rise Set
Actual Time 7:02 AM MDT 7:19 PM MDT
Civil Twilight 6:36 AM MDT 7:45 PM MDT
Nautical Twilight 6:05 AM MDT 8:16 PM MDT
Astronomical Twilight 5:33 AM MDT 8:48 PM MDT
Moon 1:35 AM MDT (3/23) 11:50 AM MDT (3/23)
Length of Visible Light 13h 09m
Length of Day
12h 16m
Waning Gibbous, 54% of the Moon is Illuminated
Mar 23
Waning Gibbous
Mar 23
Last Quarter
Mar 30
New
Apr 7
First Quarter
Apr 15
Full

Hourly Weather History & Observations

Time (MDT) Temp. Windchill Dew Point Humidity Pressure Visibility Wind Dir Wind Speed Gust Speed Precip Events Conditions
12:15 AM 27.5 °F 22.2 °F 22.1 °F 80% 30.32 in 10.0 mi ESE 4.6 mph - N/A   Clear
12:35 AM 27.5 °F 23.6 °F 21.9 °F 80% 30.31 in 10.0 mi ESE 3.5 mph - N/A   Mostly Cloudy
12:55 AM 28.8 °F 25.0 °F 22.5 °F 77% 30.31 in 10.0 mi SE 3.5 mph - N/A   Overcast
1:15 AM 28.8 °F - 22.1 °F 76% 30.31 in 10.0 mi Calm Calm - N/A   Overcast
1:35 AM 29.3 °F 21.5 °F 22.8 °F 77% 30.32 in 10.0 mi ESE 8.1 mph - N/A   Overcast
1:55 AM 29.3 °F 24.3 °F 22.8 °F 77% 30.32 in 10.0 mi ESE 4.6 mph - N/A   Overcast
2:15 AM 29.1 °F 22.1 °F 22.8 °F 77% 30.31 in 10.0 mi ESE 6.9 mph - N/A   Overcast
2:35 AM 28.9 °F 22.8 °F 22.6 °F 77% 30.31 in 10.0 mi SE 5.8 mph - N/A   Overcast
2:55 AM 28.8 °F 22.6 °F 22.6 °F 78% 30.31 in 10.0 mi SE 5.8 mph - N/A   Overcast
3:15 AM 28.4 °F 23.3 °F 22.5 °F 78% 30.30 in 10.0 mi SE 4.6 mph - N/A   Overcast
3:35 AM 28.6 °F 24.8 °F 22.1 °F 77% 30.30 in 10.0 mi ESE 3.5 mph - N/A   Overcast
3:55 AM 28.0 °F - 22.1 °F 78% 30.30 in 10.0 mi Calm Calm - N/A   Overcast
4:15 AM 27.3 °F - 21.9 °F 80% 30.29 in 10.0 mi Calm Calm - N/A   Overcast
4:35 AM 26.6 °F - 20.7 °F 78% 30.29 in 10.0 mi Calm Calm - N/A   Mostly Cloudy
4:55 AM 22.5 °F 15.1 °F 18.0 °F 83% 30.29 in 10.0 mi West 5.8 mph - N/A   Scattered Clouds
5:15 AM 22.8 °F 15.5 °F 17.1 °F 79% 30.30 in 10.0 mi West 5.8 mph - N/A   Mostly Cloudy
5:35 AM 22.1 °F 13.7 °F 16.2 °F 78% 30.30 in 10.0 mi WSW 6.9 mph - N/A   Scattered Clouds
5:55 AM 22.6 °F 14.3 °F 15.8 °F 75% 30.30 in 10.0 mi NW 6.9 mph - N/A   Clear
6:15 AM 23.7 °F 14.0 °F 14.4 °F 67% 30.30 in 10.0 mi NW 9.2 mph - N/A   Clear
6:35 AM 23.0 °F 14.7 °F 14.9 °F 71% 30.30 in 10.0 mi WNW 6.9 mph - N/A   Clear
6:55 AM 22.8 °F 12.9 °F 13.1 °F 66% 30.30 in 10.0 mi NW 9.2 mph - N/A   Clear
7:15 AM 21.9 °F 11.0 °F 12.6 °F 67% 30.31 in 10.0 mi WNW 10.4 mph - N/A   Clear
7:35 AM 21.2 °F 11.7 °F 11.3 °F 66% 30.31 in 10.0 mi NW 8.1 mph - N/A   Clear
7:55 AM 22.1 °F 12.8 °F 10.8 °F 62% 30.31 in 10.0 mi NW 8.1 mph - N/A   Clear
8:15 AM 23.2 °F 14.1 °F 11.3 °F 60% 30.31 in 10.0 mi NNW 8.1 mph - N/A   Clear
8:35 AM 24.6 °F 18.8 °F 12.6 °F 60% 30.31 in 10.0 mi WNW 4.6 mph - N/A   Clear
8:55 AM 26.2 °F 16.4 °F 11.7 °F 54% 30.30 in 10.0 mi NNW 10.4 mph - N/A   Clear
9:15 AM 28.2 °F 19.5 °F 12.2 °F 51% 30.30 in 10.0 mi North 9.2 mph - N/A   Clear
9:35 AM 30.7 °F 22.0 °F 14.5 °F 51% 30.29 in 10.0 mi North 10.4 mph - N/A   Clear
9:55 AM 32.9 °F 26.7 °F 15.8 °F 49% 30.29 in 10.0 mi North 6.9 mph - N/A   Clear
10:15 AM 35.4 °F 30.5 °F 15.1 °F 43% 30.27 in 10.0 mi North 5.8 mph - N/A   Clear
10:35 AM 38.1 °F 34.6 °F 15.3 °F 39% 30.26 in 10.0 mi NNE 4.6 mph - N/A   Clear
10:55 AM 44.8 °F 37.1 °F 8.2 °F 23% 30.25 in 10.0 mi SSW 18.4 mph 24.2 mph N/A   Clear
11:15 AM 45.9 °F 38.3 °F 7.9 °F 21% 30.25 in 10.0 mi SW 19.6 mph 25.3 mph N/A   Clear
11:35 AM 47.5 °F - 3.0 °F 16% 30.25 in 10.0 mi WSW 17.3 mph 29.9 mph N/A   Clear
11:55 AM 48.0 °F - 3.2 °F 16% 30.24 in 10.0 mi WSW 18.4 mph 29.9 mph N/A   Clear
12:15 PM 48.4 °F - 1.9 °F 15% 30.24 in 10.0 mi WSW 24.2 mph 33.4 mph N/A   Clear
12:35 PM 50.0 °F - 1.0 °F 13% 30.23 in 10.0 mi WSW 18.4 mph 29.9 mph N/A   Clear
12:55 PM 50.0 °F - -2.4 °F 11% 30.22 in 10.0 mi WSW 20.7 mph 29.9 mph N/A   Clear
1:15 PM 50.7 °F - -5.8 °F 10% 30.22 in 10.0 mi WSW 20.7 mph 28.8 mph N/A   Clear
1:35 PM 51.3 °F - -6.3 °F 9% 30.21 in 10.0 mi SW 15.0 mph 26.5 mph N/A   Clear
1:55 PM 51.4 °F - -8.9 °F 8% 30.20 in 10.0 mi SW 18.4 mph 28.8 mph N/A   Clear
2:15 PM 51.3 °F - -7.8 °F 9% 30.19 in 10.0 mi WSW 17.3 mph 27.6 mph N/A   Clear
2:35 PM 51.8 °F - -8.3 °F 8% 30.19 in 10.0 mi WSW 18.4 mph 31.1 mph N/A   Clear
2:55 PM 50.7 °F - -8.9 °F 8% 30.17 in 10.0 mi West 21.9 mph 28.8 mph N/A   Clear
3:15 PM 50.0 °F - -0.4 °F 13% 30.16 in 10.0 mi West 29.9 mph 39.1 mph N/A   Clear
3:35 PM 50.2 °F - 2.1 °F 14% 30.15 in 10.0 mi West 24.2 mph 36.8 mph N/A   Clear
3:55 PM 50.0 °F - 0.9 °F 13% 30.15 in 10.0 mi West 23.0 mph 38.0 mph N/A   Clear
4:15 PM 50.5 °F - 4.5 °F 15% 30.14 in 10.0 mi West 21.9 mph 34.5 mph N/A   Clear
4:35 PM 50.0 °F - 3.7 °F 15% 30.14 in 10.0 mi West 26.5 mph 41.4 mph N/A   Clear
4:55 PM 50.0 °F - 2.3 °F 14% 30.14 in 10.0 mi West 20.7 mph 33.4 mph N/A   Clear
5:15 PM 50.4 °F - 3.0 °F 14% 30.14 in 10.0 mi WSW 20.7 mph 29.9 mph N/A   Clear
5:35 PM 49.5 °F - 3.0 °F 15% 30.14 in 10.0 mi West 23.0 mph 36.8 mph N/A   Clear
5:55 PM 49.6 °F - 5.0 °F 16% 30.14 in 10.0 mi West 25.3 mph 34.5 mph N/A   Clear
6:15 PM 48.9 °F - 6.6 °F 18% 30.14 in 10.0 mi West 13.8 mph 26.5 mph N/A   Clear
6:35 PM 47.7 °F - 7.2 °F 19% 30.14 in 10.0 mi West 11.5 mph 20.7 mph N/A   Clear
6:55 PM 46.2 °F 45.0 °F 7.3 °F 20% 30.14 in 10.0 mi West 3.5 mph - N/A   Clear
7:15 PM 45.1 °F - 7.3 °F 21% 30.14 in 10.0 mi Calm Calm - N/A   Clear
7:35 PM 42.4 °F - 7.5 °F 24% 30.14 in 10.0 mi Calm Calm - N/A   Clear
7:55 PM 45.3 °F 39.7 °F 6.8 °F 21% 30.14 in 10.0 mi WNW 11.5 mph 17.3 mph N/A   Clear
8:15 PM 43.7 °F - 7.0 °F 22% 30.15 in 10.0 mi Calm Calm - N/A   Clear
8:35 PM 43.5 °F 41.9 °F 7.5 °F 23% 30.15 in 10.0 mi NNE 3.5 mph - N/A   Clear
8:55 PM 41.7 °F - 7.3 °F 24% 30.16 in 10.0 mi Calm Calm - N/A   Clear
9:15 PM 41.9 °F - 7.5 °F 24% 30.17 in 10.0 mi Calm Calm - N/A   Clear
9:35 PM 42.6 °F - 7.3 °F 23% 30.17 in 10.0 mi Calm Calm - N/A   Clear
9:55 PM 41.7 °F 39.8 °F 7.0 °F 24% 30.17 in 10.0 mi SE 3.5 mph - N/A   Clear
10:15 PM 40.5 °F - 6.8 °F 25% 30.19 in 10.0 mi Calm Calm - N/A   Clear
10:35 PM 42.6 °F 37.2 °F 0.7 °F 17% 30.19 in 10.0 mi WSW 9.2 mph - N/A   Clear
10:55 PM 41.0 °F 34.7 °F 0.3 °F 18% 30.19 in 10.0 mi West 10.4 mph - N/A   Clear
11:15 PM 42.1 °F 34.9 °F -2.6 °F 15% 30.19 in 10.0 mi West 13.8 mph 23.0 mph N/A   Clear
11:35 PM 41.2 °F 34.5 °F -2.2 °F 16% 30.19 in 10.0 mi West 11.5 mph 16.1 mph N/A   Clear
11:55 PM 41.2 °F 34.5 °F -3.3 °F 15% 30.19 in 10.0 mi West 11.5 mph 20.7 mph N/A   Clear